This demonstration page uses our WeatherBlox Daily Observations layout. Learn more.

Left ArrowRight Arrow

30.21309, -93.2044

Hourly Observations for August 10, 2020

Temp ( °F °C ) Dew Point ( °F °C ) Humidity (%) Winds ( mph kmh ) Pressure ( in mb ) Visibility ( mi km ) Precip ( " mm )
12:15 am 00:15 Clear 78 25.7 76 24.6 94 94 SE 3 6 30.08 1019 10 16 0.00 0.00
12:35 am 00:35 Clear 78 25.6 76 24.5 94 94 Calm 30.08 1019 10 16 0.00 0.00
12:55 am 00:55 Clear 78 25.3 76 24.5 95 95 SSE 5 7 30.08 1019 10 16 0.00 0.00
1:15 am 01:15 Clear 77 25 76 24.4 96 96 SE 5 7 30.08 1019 10 16 0.00 0.00
1:35 am 01:35 Clear 77 24.9 76 24.4 97 97 Calm 30.07 1018 10 16 0.00 0.00
1:55 am 01:55 Clear 78 25.4 76 24.7 96 96 Calm 30.07 1018 10 16 0.00 0.00
2:15 am 02:15 Clear 78 25.5 76 24.6 95 95 Calm 30.07 1018 10 16 0.00 0.00
2:35 am 02:35 Clear 78 25.3 76 24.4 95 95 Calm 30.07 1018 10 16 0.00 0.00
2:55 am 02:55 Clear 77 24.8 75 24.1 96 96 E 3 6 30.07 1018 10 16 0.00 0.00
3:15 am 03:15 Clear 77 25 76 24.4 96 96 Calm 30.07 1018 10 16 0.00 0.00
3:35 am 03:35 Clear 77 25 76 24.2 95 95 Calm 30.08 1019 10 16 0.00 0.00
3:55 am 03:55 Clear 76 24.6 75 24 96 96 Calm 30.07 1018 10 16 0.00 0.00
4:15 am 04:15 Clear 77 24.8 76 24.3 97 97 Calm 30.08 1019 10 16 0.00 0.00
4:35 am 04:35 Clear 77 25.1 76 24.3 95 95 Calm 30.08 1019 10 16 0.00 0.00
4:55 am 04:55 Clear 76 24.4 75 23.9 97 97 Calm 30.08 1019 10 16 0.00 0.00
5:15 am 05:15 Clear 76 24.6 75 24.1 97 97 Calm 30.08 1019 10 16 0.00 0.00
5:35 am 05:35 Clear 77 24.8 76 24.2 96 96 Calm 30.08 1019 10 16 0.00 0.00
6:00 am 06:00 Mostly Clear 75 24 75 24 100 100 Calm 30.09 1019 10 16 0.00 0.00
6:50 am 06:50 Mostly Sunny 75 24 73 23 94 94 Calm 30.09 1019 10 16 0.00 0.00
7:55 am 07:55 Mostly Sunny 75 24 73 23 94 94 Calm 30.09 1019 10 16 0.00 0.00
8:48 am 08:48 Mostly Sunny 84 29 77 25 79 79 Calm 30.10 1019 10 16 0.00 0.00
9:47 am 09:47 Partly Cloudy 88 31 77 25 70 70 S 8 13 30.10 1019 10 16 0.00 0.00
10:54 am 10:54 Partly Cloudy 90 32 75 24 63 63 S 8 13 30.11 1020 10 16 0.00 0.00
11:55 am 11:55 Partly Cloudy 90 32 73 23 59 59 SW 7 11 30.11 1020 10 16 0.00 0.00
12:46 pm 12:46 Partly Cloudy 91 33 75 24 59 59 S 12 19 30.09 1019 10 16 0.00 0.00
1:51 pm 13:51 Partly Cloudy 91 33 73 23 56 56 SSW 12 19 30.08 1019 10 16 0.00 0.00
2:53 pm 14:53 Partly Cloudy 93 34 73 23 53 53 SSW 13 20 30.06 1018 10 16 0.00 0.00
3:50 pm 15:50 Mostly Sunny 93 34 70 21 47 47 S 8 13 30.04 1017 10 16 0.00 0.00
4:50 pm 16:50 Mostly Sunny 93 34 66 19 41 41 S 9 15 30.03 1017 10 16 0.00 0.00
5:55 pm 17:55 Mostly Sunny 91 33 66 19 44 44 S 10 17 30.01 1016 10 16 0.00 0.00
6:50 pm 18:50 Mostly Sunny 90 32 72 22 55 55 S 9 15 30.00 1016 10 16 0.00 0.00
7:50 pm 19:50 Mostly Sunny 86 30 73 23 66 66 SSW 8 13 29.99 1016 10 16 0.00 0.00
8:50 pm 20:50 Mostly Clear 82 28 75 24 79 79 S 8 13 30.00 1016 10 16 0.00 0.00
9:50 pm 21:50 Mostly Clear 82 28 75 24 79 79 SSW 7 11 30.01 1016 10 16 0.00 0.00
10:15 pm 22:15 Clear 81 27.2 76 24.3 84 84 S 6 9 30.01 1016 10 16 0.00 0.00
10:35 pm 22:35 Clear 77 25.1 75 24 94 94 SSE 5 7 30.01 1016 10 16 0.00 0.00
10:55 pm 22:55 Clear 77 24.9 75 23.9 94 94 S 5 7 30.01 1016 10 16 0.00 0.00
11:15 pm 23:15 Clear 77 24.8 75 23.9 95 95 S 5 7 30.02 1017 10 16 0.00 0.00
11:35 pm 23:35 Clear 76 24.6 75 23.9 96 96 SSE 5 7 30.02 1017 10 16 0.00 0.00
11:55 pm 23:55 Clear 77 25 76 24.3 96 96 S 6 9 30.01 1016 10 16 0.00 0.00

Powered by AerisWeather